Weather History for KANB - December, 2013

Change the Weather History Date:

Tuesday, December 24, 2013

  Actual Average Record
Temperature  
Mean Temperature 34 °F 44 °F  
Max Temperature 41 °F 54 °F 78 °F (1964)
Min Temperature 27 °F 34 °F 4 °F (1989)
Degree Days  
Heating Degree Days 31    
Month to date heating degree days 379  
Since 1 July heating degree days 908  
Moisture  
Dew Point 22 °F    
Average Humidity 61    
Maximum Humidity 85    
Minimum Humidity 37    
Precipitation  
Precipitation 0.00 in 0.13 in 1.73 in (2002)
Month to date precipitation 7.72 3.27  
Year to date precipitation 73.78 48.82  
Sea Level Pressure  
Sea Level Pressure 30.46 in    
Wind  
Wind Speed 5 mph (NW)    
Max Wind Speed 15 mph    
Max Gust Speed 22 mph    
Visibility 10 miles    
Events      
T = Trace of Precipitation, MM = Missing Value Source: NWS Daily Summary

Daily Weather History Graph

Daily Weather History Graph

Search for Another Location

Airport or City:

Trip Planner

Search our weather history database for the weather conditions in past years. The results will help you decide how hot, cold, wet, or windy it might be!

Date:

Astronomy

Dec. 24, 2013 Rise Set
Actual Time 6:45 AM CST 4:41 PM CST
Civil Twilight 6:17 AM CST 5:08 PM CST
Nautical Twilight 5:46 AM CST 5:39 PM CST
Astronomical Twilight 5:16 AM CST 6:10 PM CST
Moon 11:28 PM CST (12/24) 10:57 AM CST (12/24)
Length of Visible Light 10h 50m
Length of Day
9h 55m
Waning Gibbous, 58% of the Moon is Illuminated
Dec 24
Waning Gibbous
Dec 25
Last Quarter
Jan 1
New
Jan 7
First Quarter
Jan 15
Full

Hourly Weather History & Observations

Time (CST) Temp. Windchill Dew Point Humidity Pressure Visibility Wind Dir Wind Speed Gust Speed Precip Events Conditions
12:53 AM 34.0 °F 28.8 °F 25.0 °F 70% 30.41 in 10.0 mi NNW 5.8 mph - N/A   Clear
1:53 AM 33.1 °F 28.7 °F 25.0 °F 72% 30.42 in 10.0 mi Variable 4.6 mph - N/A   Clear
2:53 AM 33.1 °F 26.1 °F 25.0 °F 72% 30.42 in 10.0 mi North 8.1 mph - N/A   Clear
3:53 AM 32.0 °F 28.7 °F 24.1 °F 73% 30.44 in 10.0 mi WSW 3.5 mph - N/A   Partly Cloudy
4:53 AM 30.9 °F - 25.0 °F 79% 30.44 in 10.0 mi Calm Calm - N/A   Scattered Clouds
5:06 AM 30.9 °F 27.5 °F 25.0 °F 79% 30.41 in 10.0 mi SSW 3.5 mph - N/A   Mostly Cloudy
5:53 AM 30.9 °F - 25.0 °F 79% 30.46 in 10.0 mi Calm Calm - N/A   Overcast
6:12 AM 30.9 °F 27.5 °F 25.0 °F 79% 30.43 in 10.0 mi SW 3.5 mph - N/A   Overcast
6:41 AM 30.0 °F 24.1 °F 25.0 °F 82% 30.45 in 10.0 mi SW 5.8 mph - N/A   Overcast
6:53 AM 30.0 °F 26.5 °F 25.0 °F 82% 30.49 in 9.0 mi WSW 3.5 mph - N/A   Overcast
7:24 AM 30.0 °F - 24.1 °F 79% 30.46 in 10.0 mi Calm Calm - N/A   Mostly Cloudy
7:34 AM 30.9 °F 27.5 °F 24.1 °F 76% 30.46 in 10.0 mi Variable 3.5 mph - N/A   Scattered Clouds
7:53 AM 30.9 °F 27.5 °F 23.0 °F 72% 30.50 in 10.0 mi Variable 3.5 mph - N/A   Clear
8:53 AM 34.0 °F - 21.9 °F 61% 30.52 in 10.0 mi Calm Calm - N/A   Clear
9:53 AM 37.0 °F 31.6 °F 21.9 °F 54% 30.53 in 10.0 mi Variable 6.9 mph - N/A   Clear
10:53 AM 37.9 °F 32.1 °F 21.0 °F 51% 30.52 in 10.0 mi NNW 8.1 mph - N/A   Clear
11:53 AM 39.0 °F 32.3 °F 19.9 °F 46% 30.51 in 10.0 mi NNW 10.4 mph 21.9 mph N/A   Clear
12:53 PM 39.0 °F 32.8 °F 19.0 °F 45% 30.49 in 10.0 mi WNW 9.2 mph - N/A   Clear
1:53 PM 39.9 °F 34.5 °F 19.0 °F 43% 30.47 in 10.0 mi North 8.1 mph 16.1 mph N/A   Clear
2:53 PM 39.0 °F 31.4 °F 16.0 °F 39% 30.47 in 10.0 mi NNW 12.7 mph - N/A   Unknown
3:53 PM 37.9 °F 30.5 °F 17.1 °F 43% 30.47 in 10.0 mi North 11.5 mph - N/A   Clear
4:53 PM 37.0 °F 34.5 °F 18.0 °F 46% 30.47 in 10.0 mi North 3.5 mph - N/A   Clear
5:53 PM 35.1 °F 32.2 °F 18.0 °F 50% 30.47 in 10.0 mi NNW 3.5 mph - N/A   Clear
6:53 PM 34.0 °F 31.0 °F 19.0 °F 54% 30.47 in 10.0 mi Variable 3.5 mph - N/A   Clear
7:53 PM 32.0 °F - 19.0 °F 59% 30.46 in 10.0 mi Calm Calm - N/A   Clear
8:53 PM 28.9 °F - 23.0 °F 78% 30.46 in 10.0 mi Calm Calm - N/A   Clear
9:53 PM 28.0 °F - 25.0 °F 88% 30.46 in 10.0 mi Calm Calm - N/A   Clear
10:53 PM 28.9 °F 23.9 °F 19.9 °F 69% 30.44 in 10.0 mi ENE 4.6 mph - N/A   Clear
11:53 PM 27.0 °F 23.0 °F 21.9 °F 81% 30.43 in 10.0 mi ESE 3.5 mph - N/A   Clear